Location: Emory University Observatory
(33.7903°N, 84.3267°W)
Time: 01:32:01
(UTC-04:00)

ISS - Visible Passes

Search period start: 26 April 2018 00:00
Search period end: 06 May 2018 00:00
Orbit: 403 x 406 km, 51.6° (Epoch: 26 April)

Date Brightness Start Highest point End Pass type
(mag) Time Alt. Az. Time Alt. Az. Time Alt. Az.
29 Apr -1.2 05:36:10 10° SSE 05:38:08 15° SE 05:40:05 10° E visible
30 Apr -3.8 06:18:46 10° SW 06:22:01 81° NW 06:25:17 10° NE visible
01 May -3.0 05:28:24 26° S 05:29:45 42° SE 05:32:52 10° ENE visible
02 May -1.4 04:38:19 18° ESE 04:38:19 18° ESE 04:39:59 10° E visible
02 May -2.6 06:10:58 10° W 06:13:53 29° NW 06:16:48 10° NNE visible
03 May -3.7 05:20:47 46° W 05:21:28 61° NW 05:24:42 10° NE visible
04 May -1.9 04:30:30 30° ENE 04:30:30 30° ENE 04:32:21 10° NE visible
04 May -1.4 06:03:59 10° WNW 06:05:52 14° NNW 06:07:45 10° N visible
05 May -2.2 05:12:48 23° NW 05:13:18 24° NW 05:16:02 10° NNE visible
